カタログに戻る

FENGYUN 1C DEB

運用中SSO
NORAD 29923·DEBRIS·🇨🇳 China

打ち上げ May 10, 1999 から Taiyuan Satellite Launch Center

Loading…

次のパス (今後24時間)

TLE

最新Source: Space-Track

元期: Sep 14, 2026, 05:54 UTC

1 29923U 99025HV  26257.24609177  .00000478  00000-0  27194-3 0  9993
2 29923  98.6880 262.9268 0018566 104.3925 316.3645 14.14347643 11671

AllMySatでFENGYUN 1C DEBをリアルタイム追跡

Download on the App Store